Home > Weather > Greater Sudbury > Past weeks

Flag for Canada Weather for the Past 2 Weeks in Greater Sudbury, Ontario, Canada

Now
23 °F

Light snow. Mostly cloudy.


Feels Like: 10 °F
Forecast: 27 / 31 °F
Wind: 15 mph from Southeast

Location: Sudbury

Current Time: Feb 7, 2016 at 11:37:09 PM

Latest Report: Feb 7, 2016 at 10:00 PM


Visibility: 12 mi

Pressure: 29.83 "Hg

Humidity: 100%

Dew point: 23 °F

Location of Greater SudburyLocation

Historic Weather in Greater Sudbury — Graph

°F

Greater Sudbury Temperature Yesterday

Maximum temperature yesterday: 28 °F (at 2:00 PM)
Minimum temperature yesterday: 14 °F (at 12:00 AM)
Average temperature yesterday: 22 °F

High & Low Weather Summary for the Past Weeks

 TemperatureHumidityPressure
High36 °F (Jan 31, 1:00 PM)100% (Jan 24, 11:00 PM)30.36 "Hg (Jan 24, 11:00 PM)
Low-11 °F (Jan 29, 8:00 AM)66% (Jan 29, 3:00 PM)29.34 "Hg (Jan 28, 3:00 PM)
Average19 °F89%29.87 "Hg
* Reported Jan 23 10:00 PM — Feb 7 10:00 PM, Greater Sudbury, Weather by CustomWeather, © 2016

Note: Actual official high and low records may vary slightly from our data, if they occured in-between our weather recording intervals... More about our weather records

Advertising

Greater Sudbury Weather History for the Previous 24 Hours

 ConditionsComfort  
Time TempWeatherWind HumidityBarometerVisibility
10:00 PM
Sun, Feb 7
23 °FLight snow. Mostly cloudy.15 mph100%29.83 "Hg12 mi
9:00 PM23 °FLight snow. Low clouds.13 mph100%29.85 "Hg12 mi
8:00 PM23 °FLight snow. Low clouds.15 mph93%29.86 "Hg15 mi
7:00 PM21 °FLight snow. Low clouds.14 mph93%29.87 "Hg15 mi
6:00 PM19 °FLight snow. Low clouds.13 mph93%29.88 "Hg2 mi
5:00 PM18 °FLight snow. Ice fog.15 mph93%29.88 "Hg2 mi
4:00 PM16 °FLight snow. Mostly cloudy.16 mph93%29.88 "Hg1 mi
3:00 PM14 °FLight snow. Mostly cloudy.13 mph92%29.91 "Hg2 mi
2:00 PM12 °FLight snow. Low clouds.14 mph92%29.92 "Hg3 mi
1:00 PM10 °FLight snow. Low clouds.13 mph92%29.96 "Hg5 mi
12:00 PM10 °FLight snow. Overcast.15 mph85%29.98 "Hg10 mi
11:00 AM9 °FLight snow. Overcast.14 mph78%30.01 "Hg15 mi
10:00 AM7 °FLight snow. Overcast.13 mph85%30.02 "Hg5 mi
9:00 AM5 °FLight snow. Overcast.16 mph85%30.01 "Hg15 mi
8:00 AM5 °FLight snow. Overcast.13 mph85%30.05 "Hg2 mi
7:00 AM5 °FMostly cloudy.16 mph85%30.05 "Hg15 mi
6:00 AM7 °FLight snow. Overcast.14 mph78%30.06 "Hg5 mi
5:00 AM7 °FLight snow. Mostly cloudy.16 mph85%30.06 "Hg7 mi
4:00 AM9 °FLight snow. Mostly cloudy.13 mph85%30.07 "Hg6 mi
3:00 AM10 °FLight snow. Overcast.14 mph92%30.07 "Hg7 mi
2:00 AM12 °FLight snow. Mostly cloudy.14 mph92%30.06 "Hg7 mi
1:00 AM16 °FLight snow. Overcast.16 mph93%30.06 "Hg3 mi
12:00 AM19 °FLight snow. Mostly cloudy.10 mph93%30.06 "Hg15 mi
11:00 PM
Sat, Feb 6
23 °FLight snow. Overcast.2 mph93%30.05 "Hg5 mi
Weather by CustomWeather, © 2016

See weather overviewHow to use our weather pages